TimeCST,TemperatureF,Dew PointF,Humidity,Sea Level PressureIn,VisibilityMPH,Wind Direction,Wind SpeedMPH,Gust SpeedMPH,PrecipitationIn,Events,Conditions,WindDirDegrees,DateUTC
12:40 AM,42.1,37.0,82,29.63,9.0,WNW,21.9,33.4,N/A,,Overcast,290,2013-01-12 06:40:00
12:52 AM,41.0,37.4,87,29.64,7.0,WNW,20.7,29.9,N/A,,Overcast,290,2013-01-12 06:52:00
12:54 AM,39.9,36.0,86,29.66,7.0,WNW,23.0,29.9,N/A,,Overcast,290,2013-01-12 06:54:00
1:01 AM,39.0,35.1,86,29.65,7.0,West,19.6,-,N/A,,Overcast,280,2013-01-12 07:01:00
1:12 AM,37.4,33.8,87,29.66,7.0,West,16.1,-,N/A,,Overcast,280,2013-01-12 07:12:00
1:54 AM,35.6,30.2,81,29.72,10.0,West,26.5,29.9,N/A,,Overcast,260,2013-01-12 07:54:00
2:17 AM,35.1,28.9,78,29.75,10.0,WSW,18.4,-,N/A,,Overcast,250,2013-01-12 08:17:00
2:54 AM,33.1,26.1,75,29.81,10.0,WSW,23.0,31.1,N/A,,Overcast,250,2013-01-12 08:54:00
3:54 AM,30.9,21.9,69,29.85,10.0,West,23.0,27.6,N/A,,Mostly Cloudy,280,2013-01-12 09:54:00
4:54 AM,28.0,19.0,69,29.90,10.0,West,17.3,26.5,N/A,,Overcast,260,2013-01-12 10:54:00
5:41 AM,25.0,16.0,69,29.90,10.0,West,19.6,25.3,N/A,,Scattered Clouds,280,2013-01-12 11:41:00
5:54 AM,25.0,14.0,63,29.94,10.0,WNW,24.2,31.1,N/A,,Partly Cloudy,290,2013-01-12 11:54:00
6:54 AM,21.9,10.9,63,29.99,10.0,West,16.1,27.6,N/A,,Partly Cloudy,280,2013-01-12 12:54:00
7:54 AM,21.0,10.0,63,30.01,10.0,West,16.1,-,N/A,,Partly Cloudy,280,2013-01-12 13:54:00
8:54 AM,23.0,10.9,60,30.02,10.0,WNW,15.0,-,N/A,,Scattered Clouds,300,2013-01-12 14:54:00
9:54 AM,24.1,12.9,62,30.04,10.0,West,15.0,-,N/A,,Mostly Cloudy,280,2013-01-12 15:54:00
10:54 AM,25.0,14.0,63,30.04,10.0,WNW,12.7,-,N/A,,Mostly Cloudy,290,2013-01-12 16:54:00
11:54 AM,27.0,12.9,56,30.05,10.0,WNW,16.1,-,N/A,,Overcast,290,2013-01-12 17:54:00
12:54 PM,24.1,10.9,57,30.06,10.0,WNW,17.3,-,N/A,,Overcast,300,2013-01-12 18:54:00
1:54 PM,24.1,10.9,57,30.06,10.0,NW,15.0,-,N/A,,Overcast,310,2013-01-12 19:54:00
2:54 PM,23.0,10.0,58,30.07,10.0,NW,10.4,-,N/A,,Mostly Cloudy,310,2013-01-12 20:54:00
3:44 PM,21.9,10.9,63,30.06,10.0,WNW,15.0,-,N/A,,Overcast,300,2013-01-12 21:44:00
3:48 PM,21.2,10.4,63,30.05,10.0,NW,11.5,-,N/A,,Overcast,310,2013-01-12 21:48:00
3:54 PM,23.0,10.0,58,30.09,10.0,NW,10.4,-,N/A,,Overcast,320,2013-01-12 21:54:00
4:42 PM,21.9,10.9,63,30.05,10.0,NNW,9.2,-,N/A,,Overcast,330,2013-01-12 22:42:00
4:54 PM,21.9,10.9,63,30.09,10.0,NW,11.5,-,N/A,,Overcast,320,2013-01-12 22:54:00
5:54 PM,21.9,10.0,60,30.10,10.0,NW,12.7,-,N/A,,Overcast,320,2013-01-12 23:54:00
6:54 PM,21.0,10.0,63,30.14,10.0,NW,13.8,-,N/A,,Overcast,320,2013-01-13 00:54:00
7:19 PM,21.0,10.9,65,30.09,10.0,NNW,11.5,-,N/A,,Overcast,330,2013-01-13 01:19:00
7:54 PM,19.9,10.0,65,30.11,10.0,NNW,11.5,-,N/A,,Overcast,340,2013-01-13 01:54:00
8:54 PM,19.9,8.1,60,30.12,10.0,NW,12.7,-,N/A,,Overcast,310,2013-01-13 02:54:00
9:54 PM,18.0,6.1,60,30.09,10.0,NW,18.4,-,N/A,,Scattered Clouds,320,2013-01-13 03:54:00
10:54 PM,17.1,6.1,62,30.11,10.0,NW,16.1,-,N/A,,Partly Cloudy,320,2013-01-13 04:54:00
11:09 PM,18.0,6.1,60,30.07,10.0,WNW,18.4,-,N/A,,Mostly Cloudy,300,2013-01-13 05:09:00
11:54 PM,16.0,6.1,65,30.08,10.0,NNW,16.1,20.7,N/A,,Mostly Cloudy,330,2013-01-13 05:54:00